星链-30921 (STARLINK-30921 )

导读

STARLINK-30921是美国太空探索技术公司(SpaceX)于2023年11月20日发射的星链(Starlink)卫星,隶属于美国Starlink星座组网项目,旨在为全球提供低延迟、高速率的宽带互联网服务。该卫星由SpaceX部署到近地轨道,是星链全球星座建设过程中补充组网的卫星之一。

Basic Information
目录编号:
58383
目录名称:
STARLINK-30921
国际标识:
2023-178K
轨道中心:
EARTH
卫星名称:
星链-30921
卫星全名:
星链-30921 (STARLINK-30921 )
卫星状态:
在轨 (已飞行1026 天)
发射日期:
2023-11-20 UTC
国别 :
美国 (US)
星等 :
--
This satellite is enrolled in the Space Conjunction Data Service (SCDS) and the current flight risk assessment level is: No High Risk
Orbit Information
数据来源 国际轨道数据 AOE轨道数据
星历时间 2026-09-11T22:40:02+0800
5小时前
查看轨道信息
2026-09-06T23:00:00+0800
5天前
查看轨道信息
半长轴 6840.905km 6840.866km
偏心率 0.0001611 0.0000556
轨道倾角 53.159° 53.157°
近地点辐角 89.972° 75.187°
升交点赤经 213.462° 236.767°
平近点角 270.147° 87.199°
近地点 461.665km 462.348km
远地点 463.871km 463.11km
周期 93.849分钟 93.848分钟
每日圈数 15.343784 15.343915
Detailed Information
固有亮度:
5
最大亮度:
0.3
卫星平台:
Starlink v2.0 mini
覆盖范围:
全球
运营商:
太空探索技术公司
运营商所在国:
美国
制造商(研发单位):
太空探索技术公司
制造商所在国:
美国
使用方式:
暂无
Satellite Introduction
星链(Starlink)计划是由太空探索技术公司(SpaceX)提出的一个巨型低轨卫星互联网星座项目,计划在2019年至2024年间在太空搭建由约1.2万颗卫星组成的“星链”网络,其中1584颗将部署在地球上空550千米处的近地轨道,并从2020年开始工作。该卫星仍在工作。
2D Orbit Map
3D Orbit Map
Orbit Altitude Analysis Chart
Orbit Inclination Analysis Chart
Orbit Comprehensive Analysis Chart
View Comprehensive Chart
Conjunction Data List
Event ID Objects TCA Miss Dist (km) Collision Risk Probability Collision Risk Index (CRI) Action
CDM_260913-183505-838306-827421
2026-09-13T
18:35:22+0000
0.450 km
远距离
1.293161E-4 高风险 0.77
CDM_260913-222905-838306-827421
2026-09-13T
22:29:50+0000
2.069 km
极远距离
1.251586E-6 低风险 0.37
CDM_260914-000305-838306-827421
2026-09-14T
00:03:38+0000
2.069 km
极远距离
1.251437E-6 低风险 0.37
CDM_260914-045005-838306-688821
2026-09-14T
04:50:18+0000
1.898 km
极远距离
1.13039E-6 低风险 0.36
CDM_260914-053705-838306-688821
2026-09-14T
05:37:12+0000
1.933 km
极远距离
1.083615E-6 低风险 0.36
CDM_260914-031605-838306-688821
2026-09-14T
03:16:30+0000
2.139 km
极远距离
8.66978E-7 极低风险 0.34
Miss Distance Evolution Trend with All Objects
Collision Probability Evolution Trend with All Objects